Location: Newark
(17.9939°S, 31.0481°E)
Time: 12:55:00
(UTC+00:00)

Transit 2A Rocket - All Passes

Search period start: 19 November 2019 00:00
Search period end: 29 November 2019 00:00
Orbit: 594 x 909 km, 66.7° (Epoch: 18 November)

Date Brightness Start Highest point End Pass type
(mag) Time Alt. Az. Time Alt. Az. Time Alt. Az.
19 Nov - 06:34:39 10° NNW 06:39:46 79° WSW 06:45:26 10° SSE daylight
19 Nov - 17:13:20 10° SSW 17:19:13 81° ESE 17:24:34 10° NNE visible
20 Nov - 05:52:25 10° N 05:57:20 50° ENE 06:02:45 10° SE daylight
20 Nov - 07:37:39 10° W 07:40:12 13° WSW 07:42:53 10° SSW daylight
20 Nov - 16:31:08 10° S 16:36:38 41° ESE 16:41:42 10° NE visible
20 Nov - 18:15:25 10° WSW 18:18:44 16° WNW 18:21:55 10° NW visible
21 Nov - 05:10:54 10° NNE 05:15:02 25° ENE 05:19:28 10° SE daylight
21 Nov - 06:53:04 10° WNW 06:57:24 26° WSW 07:02:05 10° S daylight
21 Nov - 15:49:30 10° SSE 15:53:55 22° ESE 15:58:06 10° ENE daylight
21 Nov - 17:31:26 10° SW 17:36:28 32° WNW 17:41:09 10° NNW visible
22 Nov - 04:31:01 10° ENE 04:32:48 12° ENE 04:34:37 10° E daylight
22 Nov - 06:09:43 10° NW 06:14:44 50° WSW 06:20:15 10° S daylight
22 Nov - 15:09:22 10° SE 15:11:05 11° ESE 15:12:46 10° ESE daylight
22 Nov - 16:48:22 10° SSW 16:54:07 65° WNW 16:59:22 10° N visible
23 Nov - 05:27:04 10° NNW 05:32:13 82° ENE 05:37:54 10° SSE daylight
23 Nov - 16:05:51 10° SSW 16:11:38 64° ESE 16:16:54 10° NNE daylight
24 Nov - 04:45:03 10° N 04:49:49 40° ENE 04:55:02 10° SE daylight
24 Nov - 06:29:05 10° W 06:32:31 17° WSW 06:36:09 10° SSW daylight
24 Nov - 15:23:49 10° S 15:29:02 33° ESE 15:33:49 10° NE daylight
24 Nov - 17:07:12 10° WSW 17:11:15 20° WNW 17:15:04 10° NNW visible
25 Nov - 04:03:52 10° NNE 04:07:32 20° ENE 04:11:26 10° ESE daylight
25 Nov - 05:45:05 10° NW 05:49:46 32° WSW 05:54:51 10° S daylight
25 Nov - 14:42:29 10° SSE 14:46:15 18° ESE 14:49:51 10° ENE daylight
25 Nov - 16:23:38 10° SW 16:28:58 40° WNW 16:33:52 10° N daylight
26 Nov - 05:01:59 10° NNW 05:07:08 64° WSW 05:12:50 10° SSE daylight
26 Nov - 15:40:47 10° SSW 15:46:35 82° WNW 15:51:50 10° NNE daylight
27 Nov - 04:19:32 10° N 04:24:39 64° ENE 04:30:18 10° SSE daylight
27 Nov - 06:06:17 10° WSW 06:07:41 11° WSW 06:09:08 10° SW daylight
27 Nov - 14:58:25 10° S 15:04:03 51° ESE 15:09:11 10° NE daylight
27 Nov - 16:43:54 10° W 16:46:00 12° WNW 16:48:03 10° NW visible
28 Nov - 03:37:46 10° NNE 03:42:18 31° ENE 03:47:14 10° SE daylight
28 Nov - 05:20:48 10° WNW 05:24:51 22° WSW 05:29:10 10° SSW daylight
28 Nov - 14:16:35 10° S 14:21:23 26° ESE 14:25:50 10° ENE daylight
28 Nov - 15:59:12 10° SW 16:03:46 25° WNW 16:08:02 10° NNW daylight
